EN

Hourly Weather Aberfeldy

Today, 25 June, Friday

Time Temperature Precipitation Wind Pressure Humidity
00:00 +7°C° 0 mm 4 mps 737 mmHg 91%
01:00 +8°C° 0 mm 3 mps 737 mmHg 91%
02:00 +8°C° 0 mm 3 mps 737 mmHg 91%
03:00 +8°C° 0 mm 3 mps 737 mmHg 90%
04:00 +8°C° 0 mm 3 mps 737 mmHg 88%
05:00 +8°C° 0 mm 3 mps 738 mmHg 87%
06:00 +7°C° 0 mm 4 mps 738 mmHg 84%
07:00 +8°C° 0 mm 4 mps 738 mmHg 77%
08:00 +10°C° 0 mm 4 mps 738 mmHg 70%
09:00 +9°C° 0 mm 5 mps 738 mmHg 64%
10:00 +10°C° 0 mm 5 mps 738 mmHg 62%
11:00 +12°C° 0 mm 5 mps 738 mmHg 61%
12:00 +11°C° 0 mm 6 mps 738 mmHg 59%
13:00 +12°C° 0.1 mm 5 mps 738 mmHg 63%
14:00 +10°C° 0.1 mm 5 mps 738 mmHg 68%
15:00 +9°C° 0.1 mm 5 mps 739 mmHg 72%
16:00 +10°C° 0.1 mm 4 mps 739 mmHg 76%
17:00 +8°C° 0.1 mm 4 mps 739 mmHg 80%
18:00 +8°C° 0.1 mm 3 mps 739 mmHg 83%
19:00 +8°C° 0 mm 3 mps 739 mmHg 83%
20:00 +8°C° 0 mm 3 mps 739 mmHg 82%
21:00 +8°C° 0 mm 3 mps 739 mmHg 81%
22:00 +8°C° 0 mm 3 mps 739 mmHg 82%
23:00 +8°C° 0 mm 2 mps 739 mmHg 83%

Tomorrow, 26 June, Saturday

Time Temperature Precipitation Wind Pressure Humidity
00:00 +8°C° 0 mm 2 mps 739 mmHg 84%
01:00 +8°C° 0 mm 2 mps 740 mmHg 85%
02:00 +8°C° 0 mm 2 mps 740 mmHg 86%
03:00 +8°C° 0 mm 2 mps 740 mmHg 88%
04:00 +8°C° 0 mm 2 mps 740 mmHg 88%
05:00 +8°C° 0 mm 2 mps 740 mmHg 89%
06:00 +8°C° 0 mm 2 mps 740 mmHg 89%
07:00 +8°C° 0 mm 2 mps 740 mmHg 88%
08:00 +10°C° 0 mm 1 mps 740 mmHg 87%
09:00 +10°C° 0 mm 1 mps 740 mmHg 86%
10:00 +11°C° 0 mm 1 mps 740 mmHg 84%
11:00 +11°C° 0 mm 1 mps 740 mmHg 81%
12:00 +11°C° 0 mm 0 mps 740 mmHg 79%
13:00 +12°C° 0 mm 0 mps 740 mmHg 78%
14:00 +12°C° 0 mm 0 mps 740 mmHg 76%
15:00 +13°C° 0 mm 0 mps 740 mmHg 75%
16:00 +13°C° 0 mm 0 mps 740 mmHg 75%
17:00 +14°C° 0 mm 0 mps 740 mmHg 75%
18:00 +14°C° 0 mm 0 mps 740 mmHg 75%
19:00 +14°C° 0 mm 1 mps 740 mmHg 80%
20:00 +13°C° 0 mm 1 mps 740 mmHg 86%
21:00 +12°C° 0 mm 1 mps 740 mmHg 91%
22:00 +11°C° 0 mm 1 mps 740 mmHg 92%
23:00 +10°C° 0 mm 0 mps 740 mmHg 94%

Day after tomorrow, 27 June, Sunday

Time Temperature Precipitation Wind Pressure Humidity
00:00 +9°C° 0 mm 0 mps 740 mmHg 95%
01:00 +9°C° 0 mm 0 mps 740 mmHg 95%
02:00 +9°C° 0 mm 0 mps 739 mmHg 96%
03:00 +9°C° 0 mm 0 mps 739 mmHg 96%
04:00 +9°C° 0 mm 0 mps 739 mmHg 94%
05:00 +10°C° 0 mm 0 mps 739 mmHg 91%
06:00 +11°C° 0 mm 0 mps 739 mmHg 89%
07:00 +13°C° 0 mm 0 mps 739 mmHg 83%
08:00 +15°C° 0 mm 1 mps 738 mmHg 77%
09:00 +18°C° 0 mm 1 mps 738 mmHg 71%
10:00 +19°C° 0 mm 1 mps 738 mmHg 67%
11:00 +20°C° 0 mm 1 mps 738 mmHg 63%
12:00 +21°C° 0 mm 1 mps 738 mmHg 60%
13:00 +21°C° 0 mm 1 mps 737 mmHg 60%
14:00 +21°C° 0 mm 1 mps 737 mmHg 60%
15:00 +21°C° 0 mm 1 mps 737 mmHg 61%
16:00 +21°C° 0 mm 1 mps 737 mmHg 65%
17:00 +19°C° 0 mm 2 mps 737 mmHg 69%
18:00 +19°C° 0 mm 2 mps 737 mmHg 73%
19:00 +18°C° 0 mm 1 mps 737 mmHg 78%
20:00 +16°C° 0 mm 1 mps 737 mmHg 83%
21:00 +15°C° 0 mm 1 mps 737 mmHg 89%
22:00 +14°C° 0 mm 1 mps 737 mmHg 89%
23:00 +12°C° 0 mm 0 mps 737 mmHg 90%

28 June, Monday

Time Temperature Precipitation Wind Pressure Humidity
00:00 +12°C° 0 mm 0 mps 736 mmHg 90%
01:00 +12°C° 0 mm 0 mps 736 mmHg 90%
02:00 +12°C° 0 mm 1 mps 736 mmHg 89%
03:00 +12°C° 0 mm 1 mps 736 mmHg 89%
04:00 +13°C° 0 mm 1 mps 736 mmHg 86%
05:00 +13°C° 0 mm 1 mps 736 mmHg 83%
06:00 +13°C° 0 mm 0 mps 736 mmHg 80%
07:00 +16°C° 0 mm 1 mps 736 mmHg 73%
08:00 +18°C° 0 mm 1 mps 736 mmHg 66%
09:00 +20°C° 0 mm 1 mps 736 mmHg 59%
10:00 +21°C° 0 mm 1 mps 736 mmHg 57%
11:00 +22°C° 0 mm 1 mps 736 mmHg 54%
12:00 +24°C° 0 mm 1 mps 736 mmHg 51%
13:00 +24°C° 0.1 mm 1 mps 736 mmHg 55%
14:00 +23°C° 0.1 mm 1 mps 736 mmHg 59%
15:00 +23°C° 0.1 mm 2 mps 735 mmHg 62%
16:00 +23°C° 0.6 mm 1 mps 735 mmHg 68%
17:00 +22°C° 0.6 mm 1 mps 735 mmHg 73%
18:00 +22°C° 0.6 mm 1 mps 736 mmHg 78%
19:00 +20°C° 0.2 mm 1 mps 736 mmHg 81%
20:00 +19°C° 0.2 mm 1 mps 736 mmHg 85%
21:00 +16°C° 0.2 mm 1 mps 736 mmHg 88%
22:00 +15°C° 0 mm 1 mps 736 mmHg 89%
23:00 +14°C° 0 mm 1 mps 736 mmHg 91%

29 June, Tuesday

Time Temperature Precipitation Wind Pressure Humidity
00:00 +13°C° 0 mm 1 mps 736 mmHg 92%
01:00 +13°C° 0 mm 1 mps 736 mmHg 93%
02:00 +12°C° 0 mm 1 mps 736 mmHg 93%
03:00 +11°C° 0 mm 0 mps 736 mmHg 93%
04:00 +12°C° 0 mm 0 mps 736 mmHg 93%
05:00 +12°C° 0 mm 0 mps 737 mmHg 92%
06:00 +13°C° 0 mm 0 mps 737 mmHg 91%
07:00 +14°C° 0 mm 0 mps 737 mmHg 87%
08:00 +15°C° 0 mm 0 mps 737 mmHg 83%
09:00 +16°C° 0 mm 0 mps 737 mmHg 79%
10:00 +20°C° 0 mm 1 mps 737 mmHg 71%
11:00 +21°C° 0 mm 1 mps 737 mmHg 64%
12:00 +22°C° 0 mm 1 mps 737 mmHg 57%
13:00 +23°C° 0 mm 1 mps 737 mmHg 57%
14:00 +23°C° 0 mm 2 mps 737 mmHg 57%
15:00 +23°C° 0 mm 2 mps 737 mmHg 58%
16:00 +21°C° 0 mm 2 mps 737 mmHg 63%
17:00 +20°C° 0 mm 2 mps 738 mmHg 69%
18:00 +19°C° 0 mm 2 mps 738 mmHg 74%
19:00 +17°C° 0 mm 2 mps 738 mmHg 80%
20:00 +16°C° 0 mm 1 mps 738 mmHg 87%
21:00 +14°C° 0 mm 1 mps 738 mmHg 93%
22:00 +13°C° 0 mm 1 mps 739 mmHg 93%
23:00 +12°C° 0 mm 0 mps 739 mmHg 93%

30 June, Wednesday

Time Temperature Precipitation Wind Pressure Humidity
00:00 +11°C° 0 mm 0 mps 739 mmHg 94%
01:00 +11°C° 0 mm 0 mps 739 mmHg 94%
02:00 +11°C° 0 mm 0 mps 739 mmHg 93%
03:00 +12°C° 0 mm 1 mps 739 mmHg 93%
04:00 +12°C° 0 mm 0 mps 739 mmHg 91%
05:00 +12°C° 0 mm 0 mps 739 mmHg 88%
06:00 +13°C° 0 mm 0 mps 739 mmHg 86%
07:00 +15°C° 0 mm 0 mps 739 mmHg 79%
08:00 +16°C° 0 mm 0 mps 739 mmHg 72%
09:00 +20°C° 0 mm 1 mps 739 mmHg 65%
10:00 +21°C° 0 mm 1 mps 739 mmHg 60%
11:00 +22°C° 0 mm 1 mps 739 mmHg 56%
12:00 +23°C° 0 mm 1 mps 739 mmHg 52%
13:00 +23°C° 0 mm 2 mps 739 mmHg 52%
14:00 +23°C° 0 mm 2 mps 738 mmHg 53%
15:00 +23°C° 0 mm 2 mps 738 mmHg 53%
16:00 +21°C° 0.1 mm 2 mps 738 mmHg 60%
17:00 +20°C° 0.1 mm 2 mps 739 mmHg 67%
18:00 +19°C° 0.1 mm 2 mps 739 mmHg 74%
19:00 +17°C° 0 mm 2 mps 739 mmHg 80%
20:00 +16°C° 0 mm 1 mps 739 mmHg 86%
21:00 +14°C° 0 mm 1 mps 739 mmHg 92%
22:00 +13°C° 0 mm 1 mps 739 mmHg 93%
23:00 +13°C° 0 mm 1 mps 739 mmHg 94%
Show more